Precipitable_Water
0.50 0.40 0.33 0.38 0.40 0.38 0.35 0.33 0.30 0.37 0.48 0.45 0.44 0.44 0.49 0.57 0.57 0.54 0.53 0.54 0.60 0.64 0.66 0.67 0.70 0.76 0.77 0.74 0.72 0.75 0.77 0.86 0.93 1.00 1.02 1.11 1.04 1.01 1.01 1.04 1.01 0.98 0.88 0.67
0.45 0.36 0.45 0.43 0.40 0.36 0.35 0.31 0.27 0.36 0.41 0.44 0.44 0.41 0.49 0.50 0.48 0.53 0.53 0.55 0.60 0.64 0.65 0.66 0.69 0.76 0.80 0.76 0.78 0.80 0.81 0.85 0.92 0.98 1.03 1.06 1.02 1.00 0.99 0.94 0.81 0.65 0.60 0.60
0.40 0.41 0.46 0.44 0.40 0.35 0.32 0.30 0.31 0.30 0.34 0.36 0.38 0.32 0.40 0.42 0.49 0.54 0.54 0.58 0.63 0.64 0.63 0.64 0.67 0.75 0.83 0.77 0.79 0.84 0.89 0.92 0.95 0.99 1.01 1.00 0.99 0.94 0.81 0.68 0.58 0.58 0.60 0.61
0.46 0.51 0.45 0.44 0.40 0.42 0.30 0.39 0.37 0.34 0.32 0.22 0.43 0.21 0.32 0.39 0.41 0.49 0.48 0.53 0.58 0.65 0.67 0.66 0.68 0.75 0.83 0.81 0.84 0.87 0.91 0.95 0.98 0.99 0.95 0.89 0.81 0.69 0.63 0.59 0.60 0.61 0.62 0.61
0.41 0.43 0.42 0.38 0.39 0.47 0.37 0.44 0.39 0.39 0.34 0.31 0.26 0.27 0.25 0.40 0.35 0.40 0.44 0.49 0.59 0.64 0.67 0.65 0.68 0.78 0.86 0.85 0.81 0.88 0.90 0.92 0.93 0.89 0.82 0.75 0.65 0.62 0.63 0.63 0.62 0.61 0.61 0.59
0.45 0.55 0.49 0.43 0.45 0.47 0.50 0.46 0.44 0.42 0.37 0.25 0.22 0.24 0.18 0.28 0.33 0.40 0.46 0.49 0.57 0.64 0.67 0.67 0.73 0.81 0.85 0.88 0.83 0.83 0.83 0.83 0.84 0.76 0.70 0.65 0.62 0.63 0.63 0.62 0.61 0.61 0.59 0.57
0.35 0.37 0.46 0.51 0.41 0.45 0.42 0.37 0.26 0.25 0.25 0.18 0.27 0.23 0.18 0.32 0.36 0.42 0.45 0.49 0.56 0.64 0.66 0.66 0.68 0.72 0.78 0.82 0.82 0.80 0.76 0.72 0.70 0.68 0.66 0.64 0.64 0.64 0.63 0.62 0.61 0.59 0.57 0.53
0.21 0.17 0.32 0.44 0.38 0.34 0.36 0.34 0.26 0.18 0.20 0.20 0.32 0.22 0.18 0.29 0.38 0.53 0.52 0.52 0.58 0.63 0.67 0.67 0.69 0.72 0.74 0.75 0.74 0.69 0.64 0.64 0.67 0.66 0.63 0.64 0.64 0.64 0.63 0.63 0.61 0.59 0.57 0.53
0.22 0.22 0.36 0.37 0.40 0.39 0.33 0.30 0.31 0.30 0.31 0.27 0.23 0.23 0.25 0.31 0.41 0.52 0.49 0.53 0.56 0.63 0.64 0.68 0.70 0.71 0.72 0.71 0.69 0.65 0.62 0.62 0.63 0.61 0.62 0.62 0.63 0.64 0.64 0.62 0.60 0.61 0.59 0.52
0.34 0.26 0.38 0.44 0.48 0.45 0.34 0.38 0.28 0.30 0.19 0.17 0.20 0.21 0.13 0.17 0.34 0.50 0.48 0.51 0.62 0.66 0.67 0.70 0.71 0.72 0.71 0.70 0.66 0.63 0.61 0.59 0.59 0.60 0.61 0.62 0.64 0.65 0.65 0.61 0.61 0.62 0.58 0.50
0.42 0.38 0.37 0.44 0.38 0.35 0.37 0.31 0.33 0.28 0.25 0.19 0.18 0.19 0.27 0.27 0.42 0.45 0.52 0.60 0.62 0.63 0.65 0.67 0.69 0.69 0.67 0.64 0.60 0.58 0.59 0.58 0.58 0.60 0.61 0.63 0.65 0.66 0.64 0.62 0.62 0.64 0.56 0.47
0.50 0.42 0.33 0.36 0.45 0.49 0.42 0.36 0.32 0.24 0.21 0.25 0.31 0.29 0.42 0.42 0.47 0.51 0.58 0.63 0.65 0.66 0.64 0.65 0.66 0.65 0.62 0.59 0.60 0.59 0.59 0.58 0.58 0.60 0.63 0.64 0.66 0.66 0.65 0.64 0.62 0.62 0.51 0.41
0.52 0.41 0.31 0.36 0.43 0.49 0.41 0.36 0.33 0.34 0.32 0.30 0.31 0.35 0.53 0.51 0.53 0.59 0.57 0.60 0.62 0.64 0.66 0.67 0.66 0.64 0.63 0.61 0.60 0.59 0.58 0.58 0.60 0.62 0.64 0.65 0.66 0.67 0.68 0.63 0.62 0.56 0.42 0.35
0.60 0.46 0.40 0.33 0.40 0.47 0.41 0.43 0.45 0.40 0.34 0.32 0.40 0.45 0.48 0.46 0.49 0.53 0.54 0.57 0.58 0.61 0.63 0.64 0.64 0.65 0.64 0.62 0.61 0.60 0.60 0.61 0.61 0.63 0.64 0.65 0.66 0.69 0.67 0.61 0.58 0.44 0.36 0.32
0.56 0.42 0.46 0.48 0.52 0.53 0.50 0.47 0.48 0.42 0.43 0.37 0.42 0.49 0.48 0.49 0.48 0.49 0.55 0.59 0.59 0.61 0.63 0.64 0.64 0.65 0.65 0.65 0.65 0.64 0.63 0.62 0.62 0.62 0.63 0.65 0.70 0.68 0.61 0.60 0.48 0.38 0.32 0.31
0.60 0.44 0.50 0.48 0.58 0.55 0.49 0.53 0.53 0.54 0.51 0.51 0.56 0.50 0.53 0.54 0.53 0.52 0.55 0.57 0.57 0.60 0.65 0.68 0.70 0.70 0.70 0.70 0.68 0.66 0.64 0.63 0.62 0.63 0.65 0.69 0.68 0.63 0.61 0.50 0.38 0.32 0.31 0.30
0.55 0.50 0.47 0.41 0.55 0.53 0.45 0.52 0.59 0.59 0.64 0.60 0.47 0.50 0.53 0.50 0.51 0.54 0.57 0.60 0.63 0.67 0.69 0.70 0.71 0.73 0.73 0.72 0.71 0.67 0.64 0.63 0.63 0.64 0.69 0.68 0.65 0.62 0.51 0.39 0.32 0.31 0.30 0.31
0.53 0.51 0.52 0.43 0.43 0.29 0.45 0.52 0.58 0.54 0.58 0.60 0.62 0.57 0.56 0.55 0.60 0.63 0.66 0.65 0.67 0.70 0.72 0.73 0.72 0.72 0.73 0.74 0.71 0.68 0.64 0.62 0.65 0.68 0.67 0.65 0.62 0.50 0.40 0.32 0.30 0.30 0.31 0.29
0.63 0.52 0.46 0.40 0.36 0.41 0.44 0.47 0.47 0.47 0.50 0.61 0.58 0.60 0.62 0.63 0.63 0.62 0.69 0.71 0.70 0.72 0.75 0.75 0.79 0.79 0.77 0.70 0.66 0.64 0.64 0.67 0.66 0.66 0.64 0.59 0.48 0.38 0.31 0.28 0.29 0.31 0.29 0.27
0.62 0.57 0.48 0.43 0.34 0.30 0.41 0.50 0.53 0.55 0.41 0.56 0.57 0.55 0.57 0.63 0.51 0.56 0.68 0.72 0.74 0.77 0.78 0.78 0.78 0.76 0.74 0.71 0.70 0.69 0.67 0.65 0.63 0.62 0.54 0.44 0.37 0.29 0.27 0.29 0.31 0.30 0.27 0.25
0.47 0.46 0.40 0.41 0.38 0.40 0.53 0.56 0.55 0.36 0.39 0.54 0.56 0.54 0.54 0.53 0.58 0.66 0.70 0.71 0.74 0.75 0.76 0.77 0.76 0.73 0.72 0.72 0.70 0.66 0.62 0.61 0.56 0.45 0.41 0.36 0.29 0.27 0.30 0.31 0.30 0.28 0.26 0.24
0.42 0.39 0.37 0.44 0.38 0.32 0.59 0.56 0.43 0.50 0.54 0.54 0.56 0.58 0.58 0.61 0.64 0.66 0.67 0.67 0.69 0.70 0.72 0.75 0.73 0.70 0.69 0.68 0.64 0.61 0.55 0.45 0.42 0.40 0.34 0.28 0.27 0.29 0.31 0.29 0.29 0.27 0.24 0.22
0.38 0.44 0.40 0.44 0.45 0.58 0.64 0.58 0.62 0.63 0.59 0.60 0.58 0.60 0.60 0.60 0.62 0.65 0.66 0.68 0.69 0.71 0.71 0.72 0.68 0.64 0.62 0.61 0.53 0.43 0.41 0.41 0.38 0.34 0.27 0.25 0.29 0.30 0.30 0.29 0.27 0.25 0.24 0.21
0.52 0.61 0.52 0.52 0.57 0.61 0.63 0.65 0.67 0.66 0.63 0.64 0.65 0.65 0.66 0.63 0.66 0.66 0.68 0.67 0.67 0.67 0.65 0.63 0.59 0.52 0.44 0.42 0.41 0.42 0.39 0.37 0.32 0.26 0.25 0.28 0.29 0.29 0.29 0.28 0.26 0.24 0.22 0.20
0.58 0.62 0.57 0.56 0.62 0.63 0.65 0.68 0.68 0.68 0.70 0.67 0.67 0.67 0.65 0.65 0.64 0.64 0.62 0.60 0.56 0.54 0.52 0.48 0.43 0.39 0.37 0.38 0.38 0.38 0.36 0.32 0.27 0.25 0.27 0.27 0.28 0.29 0.28 0.27 0.26 0.24 0.22 0.21
0.63 0.59 0.57 0.54 0.65 0.64 0.63 0.70 0.73 0.68 0.66 0.68 0.66 0.66 0.66 0.63 0.56 0.55 0.53 0.51 0.47 0.44 0.42 0.39 0.37 0.37 0.37 0.38 0.37 0.35 0.33 0.28 0.25 0.26 0.26 0.27 0.28 0.28 0.27 0.26 0.25 0.23 0.22 0.20
Wind_Speed
23 25 28 28 28 30 29 27 29 26 24 26 32 35 35 34 33 31 30 30 28 26 24 23 21 19 17 17 18 19 21 21 20 18 17 16 14 13 12 13 12 12 12 13
25 29 27 28 30 30 31 34 34 28 27 28 29 34 33 35 36 34 33 29 29 26 25 23 21 19 18 16 16 16 17 18 18 18 16 16 14 13 12 12 11 11 12 14
29 25 29 30 31 30 33 34 30 29 27 32 31 35 33 34 35 35 35 33 30 30 27 25 22 20 18 16 16 16 16 16 16 16 15 14 13 12 11 10 11 12 14 16
29 32 29 28 33 31 35 30 32 30 27 26 20 29 29 28 35 35 36 34 33 31 28 25 23 21 19 17 16 17 16 16 16 16 15 14 13 12 11 11 12 14 16 18
25 26 31 37 35 32 32 31 30 29 29 29 32 27 29 30 33 35 34 34 34 33 31 28 26 23 20 18 17 17 17 16 16 15 14 13 11 11 11 12 13 15 18 20
28 25 27 33 32 34 28 28 29 26 26 28 34 29 30 29 30 30 32 32 33 32 30 27 25 23 20 18 17 17 17 17 16 15 14 13 12 11 12 13 15 18 20 22
21 26 27 25 23 26 31 27 22 25 26 31 26 29 35 22 28 28 29 29 32 32 30 28 27 25 22 20 19 18 18 17 16 15 14 13 12 12 13 15 17 19 22 24
10 12 17 21 25 21 25 29 22 21 22 27 23 28 29 29 31 29 26 28 30 31 32 30 28 25 23 21 20 19 18 17 16 15 14 14 13 14 15 17 19 21 23 25
10 13 13 14 17 23 20 27 33 20 21 20 25 27 30 29 25 23 25 27 28 28 30 30 28 26 24 22 21 20 18 17 16 15 15 14 14 15 16 18 21 23 25 26
11 14 14 15 16 21 25 18 19 25 19 21 22 26 29 28 27 21 25 26 26 26 28 28 26 25 23 22 21 20 19 17 16 15 15 15 15 16 18 20 22 24 26 28
14 14 8 11 19 23 24 26 22 23 24 19 17 22 25 28 30 25 24 25 26 26 26 26 25 23 23 22 21 20 18 17 16 16 15 15 16 18 20 22 24 26 28 29
12 9 9 14 10 14 25 29 28 21 23 21 9 13 15 20 28 27 24 24 24 24 24 23 22 22 22 22 21 19 18 17 17 16 16 17 18 20 22 24 26 27 29 31
5 3 4 1 5 11 17 22 29 25 17 22 11 11 9 16 21 23 24 24 24 24 23 22 21 21 21 21 20 19 18 18 17 17 17 18 20 22 23 25 27 29 30 32
7 6 7 8 3 8 13 24 25 25 17 17 15 10 13 18 21 20 21 23 23 23 22 21 20 20 20 20 19 19 18 18 18 18 18 20 21 23 25 26 28 30 31 33
7 7 8 12 17 14 19 23 25 25 17 17 18 20 18 19 21 20 21 21 21 21 20 20 20 19 19 19 18 18 18 18 18 18 19 20 22 24 25 27 29 31 32 34
4 5 6 1 8 15 17 18 23 20 18 21 13 14 15 17 17 18 20 20 20 19 18 18 18 18 18 18 18 18 18 18 19 19 20 21 23 24 26 28 30 31 34 36
1 2 4 3 9 14 9 16 14 19 19 16 11 13 16 17 16 16 17 19 18 17 17 17 17 17 17 17 18 18 18 18 18 18 20 21 23 25 27 28 30 33 35 37
3 1 3 5 4 5 4 7 11 11 13 12 12 12 14 14 13 13 13 16 16 16 16 16 16 15 16 16 16 16 16 17 17 18 20 21 23 25 27 29 31 34 36 37
6 3 2 4 3 3 5 4 6 10 12 16 16 12 12 13 12 10 11 13 14 14 14 14 14 15 15 15 15 15 15 16 17 18 20 22 23 25 28 30 33 35 35 37
5 5 3 1 3 4 6 3 6 8 9 12 14 15 15 15 13 13 12 12 11 12 13 13 13 13 13 13 14 14 15 16 17 18 20 22 24 27 29 31 33 34 36 39
6 5 5 2 2 4 6 4 5 6 9 10 12 15 16 15 13 13 11 10 11 11 12 12 11 12 12 13 13 13 15 15 16 18 20 23 25 28 30 31 33 35 38 40
8 7 5 4 4 4 3 4 5 6 5 5 8 11 12 13 11 11 10 10 10 10 10 11 10 11 11 12 12 13 14 15 17 19 22 24 26 28 29 32 34 37 39 42
10 10 8 8 5 5 5 4 6 5 5 4 6 9 13 13 12 11 9 9 9 9 9 9 9 9 10 10 11 12 14 16 18 20 22 24 26 28 31 33 35 38 41 43
10 10 8 7 7 9 8 7 5 4 5 6 7 9 11 12 11 10 9 8 8 8 8 8 8 8 9 10 12 13 15 18 19 21 22 24 27 29 32 34 37 39 42 45
9 9 9 9 7 7 10 8 8 6 6 7 7 8 10 11 10 10 9 8 8 7 7 7 8 9 10 11 12 14 16 18 19 21 23 25 28 31 33 35 38 41 44 47
11 10 9 9 10 9 10 11 9 8 9 9 10 9 9 10 10 9 8 7 6 6 7 7 8 9 10 11 13 15 16 18 20 22 24 27 29 32 34 37 40 43 45 48
Wind_Direction
257 253 248 247 247 249 251 249 249 250 253 251 248 251 247 244 242 243 244 243 240 237 233 235 236 236 239 239 236 235 231 229 228 228 230 234 243 253 263 273 281 284 287 294
259 255 252 250 247 247 247 250 251 254 251 251 251 252 250 244 240 240 241 239 235 232 229 231 232 233 235 236 233 227 221 219 222 224 228 234 240 252 262 271 277 283 291 298
252 257 251 247 246 245 246 246 249 250 255 253 256 256 249 243 240 239 239 238 233 226 226 228 229 228 230 231 225 218 215 215 217 218 223 229 237 250 259 265 275 286 295 300
260 253 257 249 248 244 249 244 248 250 251 245 243 251 244 241 236 236 237 233 230 226 226 225 226 225 225 226 220 214 212 213 216 219 224 230 238 245 256 265 276 288 297 302
263 260 250 249 249 244 250 245 244 246 246 248 245 248 241 236 236 234 234 230 227 224 221 221 222 220 221 220 217 213 212 213 217 221 223 225 232 242 256 270 282 291 298 304
264 265 259 252 250 241 243 241 244 241 241 239 234 230 239 230 231 232 232 225 224 218 217 217 217 216 216 216 213 211 211 215 218 219 221 225 232 246 261 275 286 294 299 304
267 258 256 252 247 240 232 231 234 229 229 235 223 223 232 230 234 235 226 222 219 215 213 211 212 213 214 215 214 213 213 214 214 217 222 229 241 255 269 279 288 296 300 304
259 278 240 234 234 234 230 224 227 225 228 235 221 228 229 231 237 236 228 223 212 211 209 209 210 211 212 214 214 212 212 213 215 219 226 238 251 264 275 285 292 298 301 303
261 266 255 236 230 224 229 227 224 240 232 234 227 236 242 239 234 224 214 207 203 203 202 204 207 209 211 214 213 212 212 215 218 223 232 245 257 269 280 289 295 299 302 304
271 278 253 237 229 232 226 215 213 219 224 226 230 232 231 218 216 208 201 199 197 198 198 201 205 208 212 212 211 211 214 216 221 228 239 251 263 275 284 292 297 300 302 304
256 266 274 244 238 228 220 219 218 212 215 221 234 231 223 216 200 201 196 193 192 192 195 199 204 207 210 208 208 211 213 218 225 234 245 257 269 279 288 294 298 301 303 305
236 273 265 248 240 225 210 212 202 196 199 203 200 215 205 199 196 194 193 191 190 192 192 195 199 202 203 204 207 211 216 222 231 240 252 263 274 282 290 296 300 302 304 305
209 242 302 347 170 170 180 178 193 199 192 208 211 197 188 178 179 186 185 188 188 187 191 195 197 200 201 205 210 215 221 228 237 247 258 269 278 285 292 297 300 303 305 306
216 266 256 266 234 178 175 191 188 189 191 192 203 235 201 175 176 178 181 181 184 188 192 195 198 201 203 209 214 220 227 234 243 253 264 273 281 287 293 298 301 303 305 308
247 294 277 262 247 226 186 187 188 194 193 194 227 216 186 176 174 176 175 177 179 185 190 196 200 204 207 213 220 226 233 240 248 258 268 276 283 290 295 299 302 305 307 309
244 317 320 304 174 193 184 190 199 196 196 201 198 166 165 168 162 164 169 172 177 184 190 196 202 207 213 219 225 231 238 245 253 262 271 279 286 292 296 301 304 306 308 310
255 14 23 68 116 141 158 192 175 155 174 168 162 166 162 162 165 172 175 180 185 190 197 204 209 215 220 225 230 236 241 248 257 265 274 282 288 294 299 302 305 307 309 311
253 29 86 122 116 113 152 155 187 184 187 186 174 163 176 181 179 182 193 194 200 206 212 215 219 221 225 228 232 237 243 251 260 270 278 285 292 296 300 303 306 308 310 312
208 178 97 118 139 177 163 174 179 193 207 200 201 191 192 186 190 198 209 211 214 215 217 218 219 221 227 230 232 238 247 257 267 274 281 288 294 299 302 305 308 310 311 313
193 189 152 145 145 157 174 183 197 193 203 199 209 205 203 202 202 214 218 219 212 214 214 214 220 223 226 228 233 243 256 264 271 278 285 291 297 301 304 307 309 311 312 313
178 186 191 205 204 236 205 196 188 185 210 215 217 209 204 205 221 208 208 212 214 212 210 213 218 223 226 230 241 255 263 269 275 283 289 295 300 303 306 309 311 313 314 315
196 190 201 203 215 240 205 205 186 188 176 192 201 200 193 191 190 194 198 200 201 203 208 214 217 224 232 241 251 260 267 273 281 289 295 299 303 306 309 311 313 314 315 317
228 221 218 210 222 221 210 195 184 187 188 186 172 169 172 174 181 187 192 192 198 201 207 213 216 227 241 249 257 266 274 281 288 294 298 302 306 308 311 313 314 316 317 318
224 215 223 225 236 217 203 195 189 181 178 166 160 163 169 170 181 184 189 191 192 196 203 212 221 236 252 260 268 275 282 288 293 297 302 305 308 310 313 314 316 318 319 319
216 205 222 234 223 208 207 209 198 186 170 162 160 163 166 164 171 172 174 179 186 194 209 225 241 254 263 269 277 284 289 293 297 301 305 308 310 312 314 316 318 319 320 321
225 221 216 215 217 215 213 197 191 186 180 172 162 158 158 159 161 167 172 183 196 218 236 247 257 264 272 277 284 289 293 297 301 304 307 309 312 314 315 318 319 321 322 323